[[{"header":{"parameterUnit":"m.s-1","parameterCategory":2,"la1":30.2992,"la2":30.254,"lo1":-89.0895,"lo2":-89.0443,"dy":0.0025,"dx":0.0025,"nx":19,"ny":19,"refTime":"2026-04-04T03:00:00:Z","depth":"0","parameterNumber":2,"parameterNumberName":"U-component_of_CURRENTS"},"data":[0,0,0,-0.1667,-0.1669,-0.1814,-0.1814,-0.202,-0.2021,0,0,0,0,0,0,0,0,0,0,0,-0.1618,-0.1618,-0.1667,-0.1669,-0.1813,-0.1814,-0.2019,-0.2021,0,0,0,0,0,0,0,0,0,0,0,-0.1618,-0.1618,-0.1619,-0.167,-0.1813,-0.1814,-0.2019,-0.191,0,0,0,0,0,0,0,0,0,0,-0.177,-0.1708,-0.1618,-0.1619,-0.1671,-0.1813,-0.1815,-0.1905,-0.1917,-0.1953,0,-0.1964,0,-0.1988,-0.2033,-0.2034,0,0,0,-0.1691,-0.1698,-0.1738,-0.1619,-0.1672,-0.1813,-0.1755,-0.1912,-0.1925,-0.1969,-0.1967,-0.1974,-0.1992,-0.2035,-0.2036,-0.2168,-0.2168,0,0,-0.1683,-0.165,-0.1729,-0.1746,-0.1694,-0.175,-0.1759,-0.192,-0.1927,-0.1967,-0.1979,-0.1995,-0.2036,-0.2037,-0.2168,-0.2168,0,0,0,-0.1646,-0.1644,-0.168,-0.1738,-0.1758,-0.1753,-0.1764,-0.1921,-0.1933,-0.1981,-0.1997,-0.2037,-0.2039,-0.2168,-0.2168,-0.2177,0,0,0,-0.1642,-0.1621,-0.1676,-0.1659,-0.1754,-0.1836,-0.1761,-0.1922,-0.194,-0.1996,-0.2037,-0.2041,-0.2168,-0.2168,-0.2176,-0.2165,0,0,0,-0.1614,-0.1618,-0.163,-0.1656,-0.1709,-0.1834,-0.1857,-0.1927,-0.1949,-0.2034,-0.2041,-0.2168,-0.2168,-0.2176,-0.2165,-0.2071,0,0,0,-0.1582,-0.166,-0.1629,-0.1742,-0.1707,-0.1873,-0.1856,-0.1995,-0.208,-0.2038,-0.2168,-0.2168,-0.2176,-0.2165,-0.2073,-0.1911,-0.1892,0,0,-0.168,-0.167,-0.1749,-0.1727,-0.1882,-0.1855,-0.1989,-0.2081,-0.208,-0.212,-0.2124,-0.2176,-0.2165,-0.2071,-0.1924,-0.1903,0,0,0,-0.1785,-0.182,-0.1876,-0.1943,-0.2031,-0.2043,-0.212,-0.2112,-0.2136,-0.2122,-0.2178,-0.217,-0.211,-0.2017,-0.2002,-0.1937,-0.2169,-0.2169,-0.2169,-0.182,-0.1894,-0.2005,-0.2078,-0.2148,-0.2195,-0.2202,-0.218,-0.221,-0.219,-0.218,-0.2118,-0.2023,-0.2008,-0.1946,-0.219,-0.219,-0.219,-0.219,-0.1937,-0.1983,-0.2042,-0.217,-0.2172,-0.2241,-0.2233,-0.2218,-0.2156,-0.2182,-0.2122,-0.2036,-0.199,-0.193,-0.219,-0.219,-0.219,-0.219,-0.219,-0.1922,-0.1946,-0.2028,-0.213,-0.217,-0.221,-0.2146,-0.2165,-0.2136,-0.2106,-0.1935,-0.1933,-0.187,-0.2054,-0.2054,-0.2053,-0.2053,-0.2053,-0.2052,-0.1839,-0.1925,-0.1957,-0.2074,-0.2086,-0.2085,-0.2083,-0.2024,-0.1938,-0.1909,-0.1906,-0.1831,-0.2075,-0.2069,-0.2045,-0.2047,-0.2048,-0.2048,-0.2049,-0.1798,-0.1801,-0.1853,-0.1874,-0.1904,-0.1811,-0.1866,-0.1722,-0.1676,-0.159,-0.1572,-0.1775,-0.1735,-0.1746,-0.1731,-0.1621,-0.1621,-0.1621,-0.1621,-0.1693,-0.1727,-0.1706,-0.1695,-0.1666,-0.1661,-0.1442,-0.1387,-0.1342,-0.1298,-0.1365,-0.1381,-0.1401,-0.1345,-0.1366,-0.1345,-0.1139,-0.1139,-0.1138,-0.161,-0.1627,-0.1556,-0.1579,-0.1548,-0.144,-0.1218,-0.1096,-0.107,-0.1121,-0.1308,-0.1329,-0.1364,-0.1401,-0.1327,-0.1362,-0.1334,0,0]},{"header":{"parameterUnit":"m.s-1","parameterCategory":2,"la1":30.2992,"la2":30.254,"lo1":-89.0895,"lo2":-89.0443,"dy":0.0025,"dx":0.0025,"nx":19,"ny":19,"refTime":"2026-04-04T03:00:00:Z","depth":"0","parameterNumber":3,"parameterNumberName":"V-component_of_CURRENTS"},"data":[0,0,0,-0.0238,-0.0238,-0.0181,-0.0181,0.0044,0.0046,0,0,0,0,0,0,0,0,0,0,0,-0.0252,-0.0252,-0.0238,-0.0238,-0.0181,-0.0181,0.0043,0.0046,0,0,0,0,0,0,0,0,0,0,0,-0.0252,-0.0252,-0.0252,-0.0237,-0.0181,-0.0181,0.0043,-0.0033,0,0,0,0,0,0,0,0,0,0,-0.0105,-0.0151,-0.0252,-0.0252,-0.0237,-0.0181,-0.0181,-0.0038,-0.0028,0.0056,0,0.0053,0,0.0049,0.0063,0.0064,0,0,0,-0.0219,-0.016,-0.0143,-0.0252,-0.0237,-0.0182,-0.0201,-0.0034,-0.0022,0.007,0.0056,0.0063,0.0052,0.0064,0.0066,0.0275,0.0275,0,0,-0.0222,-0.0234,-0.0152,-0.0137,-0.0233,-0.0203,-0.02,-0.0028,-0.0017,0.0057,0.0068,0.0056,0.0066,0.0068,0.0274,0.0275,0,0,0,-0.0243,-0.0236,-0.0226,-0.0145,-0.015,-0.0202,-0.0198,-0.0025,-0.0022,0.007,0.0059,0.0067,0.0071,0.0274,0.0274,0.0222,0,0,0,-0.0244,-0.025,-0.0228,-0.0233,-0.0155,-0.011,-0.0199,-0.0034,-0.0016,0.0058,0.0068,0.0073,0.0273,0.0274,0.0223,0.0194,0,0,0,-0.0252,-0.0251,-0.0248,-0.0234,-0.022,-0.0113,-0.0101,-0.0031,-0.0022,0.0064,0.0074,0.0273,0.0274,0.0223,0.0195,0.0202,0,0,0,-0.026,-0.0281,-0.0249,-0.0262,-0.022,-0.0164,-0.0102,-0.0043,0.0023,0.0069,0.0273,0.0274,0.0223,0.0196,0.0202,0.019,0.0187,0,0,-0.0297,-0.0285,-0.0293,-0.0263,-0.0236,-0.017,-0.0106,-0.0,0.0073,0.0231,0.0235,0.0222,0.0195,0.0202,0.0247,0.0242,0,0,0,-0.0311,-0.0318,-0.0301,-0.0278,-0.0217,-0.014,-0.0043,0.0021,0.0142,0.0113,0.0258,0.0243,0.0248,0.0243,0.024,0.0365,0.0279,0.0279,0.0279,-0.0368,-0.034,-0.0336,-0.0284,-0.0227,-0.0104,-0.003,0.0086,0.0154,0.0199,0.0226,0.023,0.0226,0.0223,0.0352,0.026,0.026,0.026,0.026,-0.0431,-0.0438,-0.0366,-0.0361,-0.0247,-0.0174,0.0007,0.0065,0.0193,0.0229,0.0237,0.0221,0.0215,0.0355,0.0257,0.0257,0.0258,0.0258,0.0258,-0.0488,-0.0488,-0.0478,-0.0441,-0.0357,-0.0224,-0.0126,0.001,0.0136,0.0164,0.0181,0.0182,0.0284,0.0167,0.0167,0.0167,0.0167,0.0167,0.0167,-0.0561,-0.0546,-0.0564,-0.0517,-0.0482,-0.039,-0.0199,-0.011,0.0035,0.0131,0.0132,0.0312,0.0202,0.018,0.0165,0.0165,0.0166,0.0166,0.0166,-0.0647,-0.0643,-0.067,-0.0658,-0.0578,-0.0511,-0.035,-0.0162,-0.0056,0.0009,0.0271,0.0133,0.0152,0.0156,0.0135,0.0109,0.0109,0.0109,0.0109,-0.0701,-0.0703,-0.0735,-0.0726,-0.0674,-0.0557,-0.042,-0.0191,0.0114,0.0275,0.032,0.0354,0.035,0.0384,0.0384,0.0369,0.0403,0.0404,0.0405,-0.0743,-0.075,-0.0776,-0.0768,-0.071,-0.0604,-0.0448,-0.0117,0.0304,0.0432,0.05,0.0487,0.0553,0.0537,0.0603,0.0592,0.0572,0,0]}],[{"header":{"parameterUnit":"m.s-1","parameterCategory":2,"la1":30.2992,"la2":30.254,"lo1":-89.0895,"lo2":-89.0443,"dy":0.0025,"dx":0.0025,"nx":19,"ny":19,"refTime":"2026-04-04T03:00:00:Z","depth":"2","parameterNumber":2,"parameterNumberName":"U-component_of_CURRENTS"},"data":[0,0,0,-0.1394,-0.1395,-0.1485,-0.1486,-0.1624,-0.1625,0,0,0,0,0,0,0,0,0,0,0,-0.1361,-0.1361,-0.1394,-0.1395,-0.1485,-0.1486,-0.1623,-0.1625,0,0,0,0,0,0,0,0,0,0,0,-0.1361,-0.1361,-0.1362,-0.1396,-0.1485,-0.1486,-0.1623,-0.1553,0,0,0,0,0,0,0,0,0,0,-0.1463,-0.1421,-0.1361,-0.1362,-0.1396,-0.1485,-0.1486,-0.1549,-0.1557,-0.1585,0,-0.1591,0,-0.1608,-0.1633,-0.1634,0,0,0,-0.1408,-0.1414,-0.1441,-0.1362,-0.1397,-0.1485,-0.1448,-0.1553,-0.1562,-0.1596,-0.1593,-0.1598,-0.161,-0.1634,-0.1635,-0.1748,-0.1749,0,0,-0.1403,-0.138,-0.1435,-0.1447,-0.141,-0.1445,-0.1451,-0.1559,-0.1563,-0.1594,-0.1602,-0.1612,-0.1635,-0.1636,-0.1748,-0.1748,0,0,0,-0.138,-0.1376,-0.14,-0.1441,-0.1454,-0.1448,-0.1454,-0.1558,-0.1567,-0.1603,-0.1614,-0.1636,-0.1637,-0.1748,-0.1748,-0.1756,0,0,0,-0.1378,-0.1362,-0.1398,-0.1385,-0.1451,-0.1503,-0.1451,-0.1559,-0.1572,-0.1613,-0.1636,-0.1639,-0.1747,-0.1748,-0.1755,-0.1736,0,0,0,-0.1359,-0.136,-0.1368,-0.1384,-0.1418,-0.1501,-0.1516,-0.1562,-0.1578,-0.1634,-0.1639,-0.1747,-0.1748,-0.1754,-0.1736,-0.168,0,0,0,-0.1337,-0.1381,-0.1367,-0.1432,-0.1417,-0.1525,-0.1516,-0.1602,-0.1656,-0.1637,-0.1748,-0.1748,-0.1754,-0.1735,-0.1681,-0.152,-0.1504,0,0,-0.1392,-0.1387,-0.1432,-0.1423,-0.152,-0.1514,-0.1612,-0.1668,-0.1669,-0.1715,-0.1718,-0.1755,-0.1736,-0.168,-0.1559,-0.154,0,0,0,-0.1452,-0.147,-0.1506,-0.1548,-0.1612,-0.1633,-0.1693,-0.1697,-0.1724,-0.1699,-0.1767,-0.1754,-0.1718,-0.1624,-0.161,-0.1751,-0.1751,-0.1751,-0.1751,-0.1463,-0.151,-0.1578,-0.1631,-0.1683,-0.1732,-0.174,-0.1744,-0.1782,-0.1777,-0.177,-0.1744,-0.1647,-0.1634,-0.1792,-0.1792,-0.1792,-0.1792,-0.1792,-0.1521,-0.1543,-0.1594,-0.1675,-0.1698,-0.1763,-0.1778,-0.1776,-0.1757,-0.1786,-0.1751,-0.1649,-0.1619,-0.1793,-0.1793,-0.1793,-0.1793,-0.1793,-0.1793,-0.1496,-0.1509,-0.1568,-0.1635,-0.1688,-0.1748,-0.1715,-0.175,-0.174,-0.1715,-0.1588,-0.1586,-0.1709,-0.1705,-0.1704,-0.1704,-0.1704,-0.1704,-0.1704,-0.1421,-0.1482,-0.1501,-0.1587,-0.1612,-0.1646,-0.1678,-0.1639,-0.1584,-0.1561,-0.1559,-0.1713,-0.1716,-0.1703,-0.1699,-0.17,-0.17,-0.1701,-0.1701,-0.1356,-0.1367,-0.1389,-0.1413,-0.1464,-0.1414,-0.1494,-0.1391,-0.1364,-0.129,-0.1447,-0.1454,-0.1419,-0.1429,-0.1408,-0.1328,-0.1328,-0.1328,-0.1327,-0.1263,-0.1288,-0.1264,-0.1262,-0.1257,-0.1288,-0.1124,-0.1083,-0.1111,-0.1115,-0.1125,-0.1129,-0.1147,-0.1099,-0.1116,-0.109,-0.0927,-0.0926,-0.0926,-0.118,-0.1192,-0.1134,-0.1159,-0.1158,-0.11,-0.0929,-0.081,-0.08,-0.0917,-0.1123,-0.1288,-0.1319,-0.1338,-0.1288,-0.1306,-0.1274,0,0]},{"header":{"parameterUnit":"m.s-1","parameterCategory":2,"la1":30.2992,"la2":30.254,"lo1":-89.0895,"lo2":-89.0443,"dy":0.0025,"dx":0.0025,"nx":19,"ny":19,"refTime":"2026-04-04T03:00:00:Z","depth":"2","parameterNumber":3,"parameterNumberName":"V-component_of_CURRENTS"},"data":[0,0,0,-0.0288,-0.0288,-0.0278,-0.0278,-0.0175,-0.0174,0,0,0,0,0,0,0,0,0,0,0,-0.0287,-0.0287,-0.0288,-0.0288,-0.0278,-0.0278,-0.0175,-0.0174,0,0,0,0,0,0,0,0,0,0,0,-0.0287,-0.0287,-0.0287,-0.0288,-0.0278,-0.0278,-0.0175,-0.0203,0,0,0,0,0,0,0,0,0,0,-0.0223,-0.0242,-0.0287,-0.0287,-0.0288,-0.0278,-0.0278,-0.0205,-0.0201,-0.0156,0,-0.0159,0,-0.0167,-0.0165,-0.0165,0,0,0,-0.0279,-0.0246,-0.0241,-0.0287,-0.0288,-0.0278,-0.028,-0.0204,-0.0199,-0.015,-0.0158,-0.0155,-0.0165,-0.0165,-0.0164,-0.0056,-0.0056,0,0,-0.028,-0.0283,-0.0245,-0.0239,-0.029,-0.0281,-0.028,-0.0202,-0.0197,-0.0158,-0.0153,-0.0163,-0.0164,-0.0163,-0.0057,-0.0056,0,0,0,-0.0287,-0.0283,-0.0282,-0.0242,-0.0249,-0.028,-0.028,-0.0201,-0.02,-0.0152,-0.0162,-0.0163,-0.0161,-0.0057,-0.0056,-0.0097,0,0,0,-0.0287,-0.0288,-0.0283,-0.0284,-0.0252,-0.0238,-0.028,-0.0206,-0.0198,-0.0163,-0.0163,-0.016,-0.0057,-0.0057,-0.0097,-0.0126,0,0,0,-0.0287,-0.0288,-0.0288,-0.0284,-0.0284,-0.024,-0.0236,-0.0205,-0.0203,-0.0165,-0.016,-0.0057,-0.0057,-0.0096,-0.0125,-0.0082,0,0,0,-0.0287,-0.0324,-0.0288,-0.033,-0.0285,-0.0295,-0.0237,-0.0236,-0.0212,-0.0162,-0.0057,-0.0056,-0.0096,-0.0124,-0.0082,-0.0068,-0.0067,0,0,-0.0343,-0.0331,-0.0358,-0.0327,-0.0357,-0.0295,-0.0286,-0.023,-0.0178,-0.0075,-0.0073,-0.0097,-0.0125,-0.0082,-0.0033,-0.0033,0,0,0,-0.0383,-0.0402,-0.0405,-0.041,-0.039,-0.034,-0.0283,-0.0228,-0.0143,-0.0161,-0.0073,-0.0089,-0.006,-0.0051,-0.0051,-0.0054,-0.0054,-0.0054,-0.0054,-0.0452,-0.0449,-0.0484,-0.0466,-0.0447,-0.0365,-0.0315,-0.0217,-0.0161,-0.012,-0.0104,-0.0077,-0.0069,-0.0068,-0.0076,-0.0076,-0.0076,-0.0076,-0.0076,-0.0545,-0.0572,-0.0532,-0.0568,-0.0485,-0.0449,-0.0309,-0.0251,-0.013,-0.0102,-0.0072,-0.0073,-0.0071,-0.0079,-0.0078,-0.0078,-0.0078,-0.0077,-0.0077,-0.0604,-0.0614,-0.0627,-0.0636,-0.0586,-0.0487,-0.0398,-0.0287,-0.0175,-0.0148,-0.0077,-0.0076,-0.01,-0.0106,-0.0106,-0.0105,-0.0105,-0.0105,-0.0105,-0.0658,-0.0669,-0.0702,-0.07,-0.0679,-0.0601,-0.0439,-0.0352,-0.02,-0.0118,-0.0116,-0.0086,-0.0085,-0.0099,-0.0104,-0.0105,-0.0105,-0.0105,-0.0105,-0.0743,-0.0737,-0.0789,-0.0793,-0.0744,-0.0669,-0.0528,-0.0326,-0.0219,-0.0145,-0.0079,-0.008,-0.0056,-0.0056,-0.0067,-0.0064,-0.0064,-0.0064,-0.0064,-0.0781,-0.079,-0.0836,-0.0841,-0.0801,-0.0692,-0.0527,-0.0308,-0.0127,-0.0039,-0.004,-0.0045,-0.0047,-0.0023,-0.0023,-0.0033,-0.0021,-0.0021,-0.0021,-0.0818,-0.0828,-0.0856,-0.0864,-0.082,-0.0703,-0.0523,-0.0223,0.0003,-0.002,-0.0035,-0.006,-0.0071,-0.0073,-0.0037,-0.0037,-0.0054,0,0]}],[{"header":{"parameterUnit":"m.s-1","parameterCategory":2,"la1":30.2992,"la2":30.254,"lo1":-89.0895,"lo2":-89.0443,"dy":0.0025,"dx":0.0025,"nx":19,"ny":19,"refTime":"2026-04-04T03:00:00:Z","depth":"4","parameterNumber":2,"parameterNumberName":"U-component_of_CURRENTS"},"data":[0,0,0,-0.0987,-0.0988,-0.1038,-0.1039,-0.1011,-0.101,0,0,0,0,0,0,0,0,0,0,0,-0.0968,-0.0968,-0.0987,-0.0988,-0.1038,-0.1039,-0.1011,-0.101,0,0,0,0,0,0,0,0,0,0,0,-0.0968,-0.0968,-0.0969,-0.0988,-0.1038,-0.1039,-0.1011,-0.0996,0,0,0,0,0,0,0,0,0,0,-0.0958,-0.0958,-0.0968,-0.0969,-0.0989,-0.1038,-0.1039,-0.0996,-0.0997,-0.0962,0,-0.0974,0,-0.099,-0.1007,-0.1006,0,0,0,-0.0987,-0.0958,-0.0968,-0.0969,-0.0989,-0.1038,-0.1015,-0.0997,-0.0998,-0.0963,-0.0973,-0.0973,-0.099,-0.1006,-0.1006,-0.0982,-0.0982,0,0,-0.0984,-0.0978,-0.0968,-0.0968,-0.1004,-0.1014,-0.1017,-0.0999,-0.1,-0.0973,-0.0973,-0.0989,-0.1006,-0.1005,-0.0982,-0.0982,0,0,0,-0.0977,-0.0976,-0.0988,-0.0969,-0.0985,-0.1015,-0.1019,-0.1001,-0.1004,-0.0973,-0.0989,-0.1006,-0.1005,-0.0982,-0.0982,-0.1004,0,0,0,-0.0975,-0.0972,-0.0987,-0.0984,-0.0986,-0.1007,-0.1021,-0.1006,-0.1004,-0.0989,-0.1006,-0.1004,-0.0982,-0.0982,-0.1003,-0.0983,0,0,0,-0.0965,-0.0971,-0.0977,-0.0983,-0.1006,-0.1008,-0.1011,-0.1006,-0.1013,-0.1006,-0.1004,-0.0981,-0.0982,-0.1002,-0.0983,-0.0961,0,0,0,-0.0956,-0.0963,-0.0977,-0.0988,-0.1005,-0.1019,-0.1012,-0.102,-0.1016,-0.1005,-0.0982,-0.0982,-0.1002,-0.0982,-0.0962,-0.0872,0,0,0,-0.0957,-0.0964,-0.0969,-0.0982,-0.099,-0.1012,-0.1014,-0.1007,-0.101,-0.098,-0.098,-0.1003,-0.0983,-0.0961,-0.0897,0,0,0,0,-0.0964,-0.0958,-0.0964,-0.0975,-0.0995,-0.1004,-0.1012,-0.1014,-0.1022,-0.1011,-0.1005,-0.0991,-0.0977,-0.0926,-0.0984,-0.0984,-0.0984,-0.0984,-0.0984,-0.0934,-0.0948,-0.0943,-0.0957,-0.0973,-0.0994,-0.0996,-0.1,-0.1013,-0.1031,-0.1012,-0.1011,-0.0961,-0.103,-0.1031,-0.1031,-0.1031,-0.1031,-0.1031,-0.0895,-0.0877,-0.0908,-0.091,-0.094,-0.0953,-0.0977,-0.0998,-0.1,-0.1028,-0.1015,-0.0957,-0.1033,-0.1033,-0.1032,-0.1032,-0.1032,-0.1032,-0.1032,-0.0845,-0.0835,-0.0855,-0.0862,-0.0888,-0.093,-0.0936,-0.0972,-0.1001,-0.0998,-0.0939,-0.1006,-0.0999,-0.1008,-0.1008,-0.1008,-0.1008,-0.1008,-0.1008,-0.0776,-0.0791,-0.078,-0.0805,-0.0817,-0.0861,-0.0922,-0.093,-0.0966,-0.0926,-0.1006,-0.1002,-0.1003,-0.0996,-0.1005,-0.1006,-0.1006,-0.1006,-0.1006,-0.0674,-0.0708,-0.0677,-0.0682,-0.0712,-0.0746,-0.0831,-0.0858,-0.0845,-0.0821,-0.0876,-0.0884,-0.0854,-0.0858,-0.0845,-0.0809,-0.0808,-0.0807,0,-0.0605,-0.0619,-0.0577,-0.0564,-0.0575,-0.0662,-0.0667,-0.072,-0.0748,-0.072,-0.0823,-0.0884,-0.0889,-0.0856,-0.0857,-0.0842,0,0,0,-0.0522,-0.0527,-0.0477,-0.0495,-0.0505,-0.0576,-0.0671,-0.0663,-0.0748,-0.0741,-0.0778,-0.0786,-0.0942,-0.0998,-0.0968,-0.0969,-0.0957,0,0]},{"header":{"parameterUnit":"m.s-1","parameterCategory":2,"la1":30.2992,"la2":30.254,"lo1":-89.0895,"lo2":-89.0443,"dy":0.0025,"dx":0.0025,"nx":19,"ny":19,"refTime":"2026-04-04T03:00:00:Z","depth":"4","parameterNumber":3,"parameterNumberName":"V-component_of_CURRENTS"},"data":[0,0,0,-0.0219,-0.022,-0.0262,-0.0262,-0.0337,-0.0338,0,0,0,0,0,0,0,0,0,0,0,-0.0205,-0.0205,-0.0219,-0.022,-0.0262,-0.0262,-0.0337,-0.0338,0,0,0,0,0,0,0,0,0,0,0,-0.0205,-0.0205,-0.0205,-0.022,-0.0262,-0.0262,-0.0337,-0.0301,0,0,0,0,0,0,0,0,0,0,-0.0258,-0.0241,-0.0205,-0.0205,-0.0221,-0.0262,-0.0262,-0.0299,-0.0303,-0.0325,0,-0.033,0,-0.0336,-0.0343,-0.0344,0,0,0,-0.0222,-0.0237,-0.0248,-0.0205,-0.0221,-0.0262,-0.0244,-0.0301,-0.0306,-0.033,-0.0331,-0.0334,-0.0338,-0.0344,-0.0344,-0.0434,-0.0434,0,0,-0.022,-0.0215,-0.0245,-0.0251,-0.0232,-0.0242,-0.0245,-0.0304,-0.031,-0.0331,-0.0336,-0.0339,-0.0345,-0.0345,-0.0434,-0.0434,0,0,0,-0.0212,-0.0213,-0.0222,-0.0248,-0.0254,-0.0243,-0.0246,-0.0307,-0.031,-0.0336,-0.034,-0.0345,-0.0346,-0.0433,-0.0434,-0.046,0,0,0,-0.0211,-0.0208,-0.0221,-0.0218,-0.0253,-0.0278,-0.0248,-0.0306,-0.0312,-0.0339,-0.0345,-0.0347,-0.0433,-0.0433,-0.0458,-0.0459,0,0,0,-0.0203,-0.0208,-0.0212,-0.0218,-0.0235,-0.0277,-0.0283,-0.0307,-0.0315,-0.0344,-0.0347,-0.0432,-0.0433,-0.0457,-0.0457,-0.0402,0,0,0,-0.0197,-0.024,-0.0212,-0.0269,-0.0235,-0.031,-0.0283,-0.0341,-0.0373,-0.0345,-0.0433,-0.0434,-0.0456,-0.0456,-0.0402,-0.0348,0,0,0,-0.0256,-0.0247,-0.0284,-0.0261,-0.0337,-0.0304,-0.0375,-0.0398,-0.0388,-0.0414,-0.0416,-0.0459,-0.0457,-0.0402,-0.0402,0,0,0,0,-0.0308,-0.0332,-0.0353,-0.0384,-0.0413,-0.042,-0.044,-0.0432,-0.0444,-0.0409,-0.047,-0.0468,-0.0432,-0.0401,-0.0438,-0.0438,-0.0438,-0.0438,-0.0438,-0.0371,-0.0391,-0.0455,-0.0479,-0.0509,-0.0515,-0.0517,-0.0504,-0.0502,-0.0501,-0.0498,-0.0487,-0.046,-0.0513,-0.0513,-0.0513,-0.0513,-0.0513,-0.0513,-0.0461,-0.0498,-0.051,-0.0579,-0.0572,-0.0613,-0.0588,-0.0566,-0.0527,-0.0532,-0.0495,-0.0445,-0.0516,-0.0516,-0.0515,-0.0515,-0.0515,-0.0514,-0.0514,-0.05,-0.0519,-0.0559,-0.0623,-0.0652,-0.065,-0.0616,-0.0593,-0.0545,-0.0522,-0.0433,-0.0481,-0.0464,-0.0483,-0.0482,-0.0482,-0.0482,-0.0482,-0.0482,-0.0514,-0.0555,-0.0604,-0.0663,-0.0684,-0.0679,-0.0624,-0.0563,-0.0507,-0.0444,-0.0505,-0.0475,-0.0476,-0.0461,-0.0478,-0.0479,-0.0479,-0.048,-0.048,-0.0558,-0.0565,-0.0633,-0.0665,-0.0696,-0.0675,-0.0634,-0.0478,-0.0394,-0.0316,-0.0384,-0.039,-0.0357,-0.036,-0.034,-0.0322,-0.0321,-0.0321,0,-0.0561,-0.0579,-0.0639,-0.0671,-0.0669,-0.0661,-0.0523,-0.0435,-0.0353,-0.0363,-0.0402,-0.0488,-0.0489,-0.0462,-0.0463,-0.0445,0,0,0,-0.0568,-0.0587,-0.0616,-0.0659,-0.0653,-0.0539,-0.0479,-0.0414,-0.0395,-0.0263,-0.0303,-0.0308,-0.0411,-0.0469,-0.0431,-0.0432,-0.0405,0,0]}]]